Weather History for Chambery, France

Change the Weather History Date:

Saturday, November 24, 2012

  Actual Average Record
Temperature  
Mean Temperature 43 °F -  
Max Temperature 51 °F 42 °F 62 °F (2006)
Min Temperature 35 °F 32 °F 24 °F (2005)
Degree Days  
Heating Degree Days 22    
Moisture  
Dew Point 40 °F    
Average Humidity 87    
Maximum Humidity 100    
Minimum Humidity 62    
Precipitation  
Precipitation 0.00 in - - ()
Sea Level Pressure  
Sea Level Pressure 30.09 in    
Wind  
Wind Speed 2 mph ()    
Max Wind Speed 6 mph    
Max Gust Speed -    
Visibility 4.1 miles    
Events      
Averages and records for this station are not official NWS values.
T = Trace of Precipitation, MM = Missing Value Source: Averaged Metar Reports

Daily Weather History Graph

Daily Weather History Graph

Search for Another Location

Airport:

Trip Planner

Search our weather history database for the weather conditions in past years. The results will help you decide how hot, cold, wet, or windy it might be!

Date:

Astronomy

Nov. 24, 2012 Rise Set
Actual Time 7:48 AM CET 4:57 PM CET
Civil Twilight 7:15 AM CET 5:30 PM CET
Nautical Twilight 6:38 AM CET 6:07 PM CET
Astronomical Twilight 6:03 AM CET 6:43 PM CET
Moon 2:42 PM CET (11/24) 3:40 AM CET (11/24)
Length of Visible Light 10h 15m
Length of Day
9h 09m
Waxing Gibbous, 85% of the Moon is Illuminated
Nov 24
Waxing Gibbous
Nov 28
Full
Dec 6
Last Quarter
Dec 13
New
Dec 20
First Quarter

Hourly Weather History & Observations

Time (CET) Temp. Windchill Dew Point Humidity Pressure Visibility Wind Dir Wind Speed Gust Speed Precip Events Conditions
12:00 AM 46.4 °F 45.2 °F 41.0 °F 81% 30.15 in 6.2 mi South 3.5 mph - N/A   Unknown
12:30 AM 44.6 °F 41.4 °F 42.8 °F 93% 30.15 in 6.2 mi SE 5.8 mph - N/A   Unknown
1:00 AM 44.6 °F - 41.0 °F 87% 30.15 in 6.2 mi Variable 2.3 mph - N/A   Unknown
1:30 AM 44.6 °F - 41.0 °F 87% 30.15 in 6.2 mi Variable 2.3 mph - N/A   Unknown
2:00 AM 42.8 °F - 39.2 °F 87% 30.12 in 5.6 mi Calm Calm - N/A   Unknown
2:30 AM 42.8 °F - 41.0 °F 93% 30.12 in 6.2 mi Calm Calm - N/A   Unknown
3:00 AM 41.0 °F - 37.4 °F 87% 30.12 in 4.3 mi Calm Calm - N/A   Unknown
3:30 AM 41.0 °F - 39.2 °F 93% 30.12 in 4.3 mi Calm Calm - N/A   Unknown
4:00 AM 39.2 °F - 37.4 °F 93% 30.12 in - Calm Calm - N/A   Mist
4:30 AM 37.4 °F - 35.6 °F 93% 30.12 in 2.2 mi Variable 1.2 mph - N/A   Mist
5:00 AM 37.4 °F - 35.6 °F 93% 30.12 in 3.1 mi ESE 1.2 mph - N/A   Mist
5:30 AM 37.4 °F - 35.6 °F 93% 30.12 in - Variable 1.2 mph - N/A   Mist
6:00 AM 37.4 °F - 35.6 °F 93% 30.12 in 1.9 mi Calm Calm - N/A   Mist
6:30 AM 35.6 °F - 35.6 °F 100% 30.12 in 2.2 mi SE 2.3 mph - N/A   Mist
7:00 AM 35.6 °F - 35.6 °F 100% 30.12 in 2.5 mi SW 1.2 mph - N/A   Mist
7:30 AM 37.4 °F - 35.6 °F 93% 30.12 in 4.3 mi Variable 1.2 mph - N/A   Unknown
8:00 AM 37.4 °F - 37.4 °F 100% 30.12 in - Calm Calm - N/A   Clear
8:30 AM 39.2 °F - 37.4 °F 93% 30.12 in - Calm Calm - N/A   Clear
9:00 AM 39.2 °F - 39.2 °F 100% 30.12 in - Calm Calm - N/A   Clear
9:30 AM 41.0 °F - 41.0 °F 100% 30.12 in - Variable 2.3 mph - N/A   Clear
10:00 AM 42.8 °F - 41.0 °F 93% 30.12 in - Variable 1.2 mph - N/A   Clear
10:30 AM 44.6 °F - 42.8 °F 93% 30.12 in - Calm Calm - N/A   Clear
11:00 AM 46.4 °F - 42.8 °F 87% 30.12 in - Calm Calm - N/A   Clear
11:30 AM 46.4 °F - 41.0 °F 81% 30.12 in - Calm Calm - N/A   Clear
12:00 PM 48.2 °F - 41.0 °F 76% 30.09 in - Calm Calm - N/A   Clear
12:30 PM 50.0 °F - 41.0 °F 71% 30.09 in - SE 3.5 mph - N/A   Clear
1:04 PM 50.0 °F - 41.0 °F 71% 30.06 in - Variable 2.3 mph - N/A   Clear
1:30 PM 51.8 °F - 39.2 °F 62% 30.06 in - Variable 2.3 mph - N/A   Clear
2:00 PM 51.8 °F - 41.0 °F 67% 30.06 in - SE 2.3 mph - N/A   Clear
2:30 PM 51.8 °F - 41.0 °F 67% 30.06 in - Variable 1.2 mph - N/A   Clear
3:00 PM 51.8 °F - 41.0 °F 67% 30.04 in - Calm Calm - N/A   Clear
3:30 PM 51.8 °F - 41.0 °F 67% 30.04 in - Calm Calm - N/A   Clear
4:00 PM 51.8 °F - 41.0 °F 67% 30.04 in - Variable 1.2 mph - N/A   Clear
4:30 PM 50.0 °F - 41.0 °F 71% 30.04 in - Calm Calm - N/A   Clear
5:00 PM 48.2 °F - 41.0 °F 76% 30.01 in - SSW 1.2 mph - N/A   Clear
5:30 PM 44.6 °F 43.1 °F 39.2 °F 81% 30.04 in - ENE 3.5 mph - N/A   Clear
6:00 PM 44.6 °F - 41.0 °F 87% 30.04 in - West 2.3 mph - N/A   Clear
6:30 PM 42.8 °F 41.1 °F 41.0 °F 93% 30.04 in 5.0 mi South 3.5 mph - N/A   Unknown
7:00 PM 42.8 °F - 41.0 °F 93% 30.04 in 5.0 mi Variable 2.3 mph - N/A   Unknown
7:30 PM 42.8 °F 40.1 °F 41.0 °F 93% 30.04 in 3.7 mi South 4.6 mph - N/A   Unknown
8:00 PM 42.8 °F - 41.0 °F 93% 30.04 in 4.3 mi Variable 2.3 mph - N/A   Unknown
8:30 PM 42.8 °F 41.1 °F 41.0 °F 93% 30.04 in 3.1 mi Variable 3.5 mph - N/A   Mist
9:00 PM 41.0 °F 39.0 °F 39.2 °F 93% 30.04 in - SSE 3.5 mph - N/A   Mist
9:30 PM 41.0 °F - 39.2 °F 93% 30.04 in 3.1 mi Variable 2.3 mph - N/A   Mist
10:00 PM 39.2 °F - 37.4 °F 93% 30.06 in 3.1 mi Calm Calm - N/A   Mist
10:30 PM 39.2 °F - 37.4 °F 93% 30.06 in 3.1 mi Variable 2.3 mph - N/A   Mist
11:00 PM 41.0 °F 39.0 °F 41.0 °F 100% 30.06 in 3.7 mi Variable 3.5 mph - N/A   Unknown
11:30 PM 41.0 °F - 39.2 °F 93% 30.06 in 3.7 mi Calm Calm - N/A   Unknown